DC4THF-13 Weather Reports


time (UTC)temp
F
wind
direction
speed
knots
gust
knots
rain 1hr
in
rain 24hr
in
rain mn
in
humidity
%
barometer
mb
20260507083301 47 351 3.5 7.0 0.00 0.02 0.00 77 1008.2
20260507082257 47 347 3.5 6.1 0.00 0.02 0.00 78 1008.1
20260507081253 47 347 2.6 6.1 0.00 0.04 0.00 78 1007.8
20260507080249 47 339 3.5 7.0 0.00 0.04 0.00 79 1007.7
20260507075246 47 345 1.7 4.3 0.00 0.04 0.00 80 1007.7
20260507074242 47 354 3.5 6.1 0.00 0.05 0.00 80 1007.6
20260507073238 46 0 1.7 4.3 0.00 0.05 0.00 80 1007.5
20260507072234 46 350 2.6 5.2 0.00 0.05 0.00 80 1007.4
20260507071231 46 9 2.6 6.1 0.00 0.06 0.00 80 1007.4
20260507070228 46 345 3.5 7.8 0.00 0.07 0.00 80 1007.4
20260507065224 46 349 3.5 8.7 0.00 0.07 0.00 80 1007.3
20260507064221 46 302 2.6 6.1 0.00 0.08 0.00 80 1007.2
20260507063218 46 342 2.6 7.0 0.00 0.09 0.00 80 1007.1
20260507062315 46 0 1.7 6.1 0.00 0.11 0.00 80 1007.1
20260507061311 46 337 3.5 9.6 0.00 0.12 0.00 80 1006.8
20260507060308 46 10 2.6 5.2 0.00 0.14 0.00 80 1006.7
20260507055306 46 356 1.7 4.3 0.00 0.17 0.00 80 1006.5
20260507054302 46 326 1.7 3.5 0.00 0.18 0.00 80 1006.4
20260507053258 46 339 2.6 3.5 0.00 0.19 0.00 80 1006.4
20260507052255 46 90 0.9 3.5 0.00 0.20 0.00 81 1006.3
20260507051252 46 39 2.6 4.3 0.00 0.21 0.00 81 1006.3
20260507050249 45 335 2.6 4.3 0.00 0.22 0.00 87 1006.2
20260507045246 45 334 1.7 3.5 0.00 0.24 0.00 88 1006.2
20260507044242 45 316 2.6 5.2 0.00 0.26 0.00 88 1006.0
20260507043239 45 0.0 0.9 0.00 0.26 0.00 88 1006.0
20260507042236 45 0 1.7 3.5 0.00 0.27 0.00 88 1006.0
20260507041233 45 344 2.6 6.1 0.00 0.28 0.00 88 1005.9
20260507040230 45 350 2.6 5.2 0.00 0.28 0.00 88 1005.7
20260507035227 45 350 1.7 5.2 0.00 0.28 0.00 88 1005.7
20260507034223 45 27 0.9 2.6 0.00 0.30 0.00 88 1005.7
20260507033220 45 353 2.6 7.0 0.00 0.31 0.00 88 1005.4
20260507032217 45 0 2.6 4.3 0.00 0.31 0.00 88 1005.5
20260507031314 45 17 1.7 3.5 0.00 0.32 0.00 88 1005.5
20260507030311 45 354 3.5 7.0 0.00 0.33 0.00 88 1005.5
20260507025308 45 343 3.5 7.0 0.00 0.33 0.00 88 1005.4
20260507024304 45 16 1.7 4.3 0.00 0.34 0.00 87 1005.2
20260507023300 45 22 0.9 4.3 0.00 0.35 0.00 87 1005.2
20260507022257 45 19 0.9 5.2 0.00 0.37 0.00 87 1005.2
20260507021252 45 0 0.0 3.5 0.00 0.39 0.00 87 1005.1
20260507020249 45 43 1.7 3.5 0.00 0.40 0.00 87 1005.1
20260507015245 45 307 1.7 3.5 0.00 0.41 0.00 87 1005.1
20260507014241 45 347 2.6 5.2 0.00 0.43 0.00 86 1004.8
20260507013238 45 327 2.6 5.2 0.00 0.43 0.00 86 1004.8
20260507012234 45 333 3.5 6.1 0.00 0.45 0.00 86 1004.8
20260507011230 45 336 3.5 7.8 0.00 0.46 0.00 86 1004.7
20260507010227 45 329 4.3 7.0 0.00 0.46 0.00 86 1004.7
20260507005224 45 340 3.5 6.1 0.00 0.47 0.00 82 1004.7
20260507004221 46 322 3.5 7.0 0.00 0.50 0.00 82 1004.5
20260507003217 46 11 2.6 4.3 0.00 0.52 0.00 81 1004.2
20260507002315 47 0 3.5 7.8 0.00 0.53 0.00 81 1004.2
20260507001311 48 24 3.5 7.0 0.00 0.54 0.00 81 1004.0
20260507000308 48 323 4.3 7.8 0.00 0.56 0.00 81 1003.9
20260506235306 49 333 2.6 7.0 0.00 0.57 0.00 81 1003.9
20260506234301 49 340 2.6 5.2 0.00 0.57 0.00 80 1003.8
20260506233258 49 158 2.6 4.3 0.00 0.58 0.00 80 1003.8
20260506232255 50 295 4.3 9.6 0.00 0.58 0.00 80 1003.8
20260506231252 50 314 3.5 7.8 0.00 0.58 0.00 80 1003.8
20260506230248 50 352 2.6 6.1 0.00 0.58 0.00 80 1003.7
20260506225245 50 339 3.5 7.0 0.00 0.58 0.00 80 1003.7
20260506224242 51 11 2.6 4.3 0.00 0.59 0.00 80 1003.6
20260506223239 51 329 2.6 6.1 0.00 0.59 0.00 80 1003.6
20260506222236 51 328 1.7 3.5 0.00 0.59 0.00 80 1003.6
20260506221232 51 333 2.6 5.2 0.00 0.59 0.00 80 1003.5
20260506220229 51 315 3.5 6.1 0.00 0.59 0.00 81 1003.5
20260506215226 51 338 3.5 7.0 0.00 0.59 0.59 83 1003.5
20260506214223 51 351 1.7 5.2 0.00 0.59 0.59 83 1003.5
20260506213220 51 0 1.7 3.5 0.00 0.59 0.59 84 1003.3
20260506212216 51 0 0.9 2.6 0.00 0.59 0.59 84 1003.3
20260506211314 51 0 1.7 2.6 0.00 0.59 0.59 83 1003.2
20260506210310 51 350 1.7 4.3 0.00 0.59 0.59 83 1003.3
20260506205307 51 329 0.9 1.7 0.00 0.59 0.59 83 1003.3
20260506204304 51 17 1.7 3.5 0.00 0.59 0.59 83 1003.2
20260506203300 51 0 1.7 3.5 0.00 0.59 0.59 82 1003.0
20260506202257 51 328 0.9 3.5 0.00 0.59 0.59 82 1003.2
20260506201253 51 6 1.7 4.3 0.00 0.59 0.59 81 1003.0
20260506200248 51 334 3.5 7.0 0.00 0.59 0.59 81 1002.8
20260506195245 51 6 2.6 7.0 0.00 0.59 0.59 83 1003.0
20260506194241 51 10 1.7 3.5 0.00 0.59 0.59 83 1002.9
20260506193237 51 328 1.7 6.1 0.00 0.59 0.59 83 1002.8
20260506192233 51 333 1.7 3.5 0.00 0.59 0.59 83 1002.7
20260506191301 51 328 1.7 3.5 0.00 0.59 0.59 82 1002.6
20260506190256 52 14 1.7 3.5 0.00 0.59 0.59 82 1002.4
20260506185253 53 354 2.6 5.2 0.00 0.59 0.59 81 1002.4
20260506184249 53 296 3.5 7.0 0.00 0.59 0.59 81 1002.2
20260506183244 54 346 3.5 8.7 0.00 0.59 0.59 81 1002.2
20260506182241 54 306 2.6 7.0 0.00 0.59 0.59 81 1002.0
20260506181237 54 330 1.7 3.5 0.00 0.59 0.59 81 1001.9
20260506180233 54 355 0.9 3.5 0.00 0.59 0.59 81 1001.8
20260506175229 55 314 3.5 7.0 0.00 0.59 0.59 78 1001.7
20260506174225 55 349 2.6 6.1 0.00 0.59 0.59 78 1001.5
20260506173222 55 16 2.6 5.2 0.00 0.59 0.59 77 1001.4
20260506172219 55 338 0.0 1.7 0.00 0.59 0.59 76 1001.4
20260506171215 55 61 1.7 3.5 0.00 0.59 0.59 76 1001.4
20260506170312 56 310 2.6 4.3 0.00 0.59 0.59 74 1001.3
20260506165309 56 339 2.6 6.1 0.00 0.59 0.59 74 1001.1
20260506164306 57 0 1.7 3.5 0.00 0.59 0.59 72 1001.1
20260506163303 57 345 3.5 7.0 0.00 0.59 0.59 72 1001.1
20260506162259 59 346 1.7 5.2 0.00 0.59 0.59 73 1001.3
20260506161256 59 341 2.6 6.1 0.00 0.59 0.59 72 1001.2
20260506160253 60 254 3.5 5.2 0.00 0.59 0.59 72 1001.3
20260506155250 57 192 1.7 3.5 0.00 0.59 0.59 78 1001.4
20260506154247 56 346 3.5 7.8 0.00 0.59 0.59 78 1001.5
20260506153243 56 285 2.6 5.2 0.00 0.59 0.59 78 1001.7
20260506152240 56 345 3.5 5.2 0.00 0.59 0.59 75 1001.7
20260506151237 57 311 2.6 4.3 0.00 0.59 0.59 77 1001.6
20260506150234 57 342 2.6 4.3 0.00 0.59 0.59 78 1001.6
20260506145231 56 346 1.7 3.5 0.00 0.59 0.59 80 1001.4
20260506143224 56 342 3.5 5.2 0.00 0.59 0.59 76 1001.5
20260506142221 57 321 2.6 5.2 0.00 0.59 0.59 76 1001.4
20260506141218 57 347 1.7 3.5 0.00 0.59 0.59 79 1001.4
20260506140215 56 19 1.7 3.5 0.00 0.59 0.59 78 1001.4
20260506135312 56 350 2.6 3.5 0.00 0.59 0.59 78 1001.4
20260506134308 56 340 3.5 5.2 0.00 0.59 0.59 77 1001.4
20260506133305 57 339 2.6 7.8 0.00 0.59 0.59 79 1001.4
20260506132302 56 313 0.9 2.6 0.00 0.59 0.59 78 1001.4
20260506131258 56 351 2.6 4.3 0.00 0.59 0.59 77 1001.4
20260506130254 56 338 2.6 4.3 0.00 0.59 0.59 77 1001.3
20260506125251 56 314 2.6 5.2 0.00 0.59 0.59 80 1001.2
20260506124246 56 314 1.7 3.5 0.00 0.59 0.59 81 1001.4
20260506123242 56 331 1.7 2.6 0.00 0.59 0.59 81 1001.5
20260506122238 56 328 2.6 3.5 0.00 0.59 0.59 81 1001.4
20260506121234 56 341 1.7 3.5 0.00 0.59 0.59 81 1001.4
20260506120230 55 324 0.9 1.7 0.00 0.59 0.59 81 1001.4
20260506115226 55 310 0.9 3.5 0.00 0.59 0.59 81 1001.3
20260506114223 55 277 1.7 2.6 0.00 0.59 0.59 80 1001.2
20260506113220 56 259 1.7 2.6 0.00 0.59 0.59 80 1001.3
20260506112217 56 333 1.7 3.5 0.00 0.59 0.59 81 1001.1
20260506111314 56 342 0.9 3.5 0.00 0.59 0.59 81 1001.0
20260506110311 55 328 2.6 4.3 0.00 0.59 0.59 83 1000.6
20260506105308 55 321 2.6 3.5 0.00 0.59 0.59 83 1000.6
20260506104304 54 350 2.6 4.3 0.00 0.59 0.59 86 1000.6
20260506103301 55 294 2.6 5.2 0.00 0.59 0.59 84 1000.6
20260506102258 56 327 2.6 4.3 0.00 0.59 0.59 87 1000.6
20260506101255 55 343 1.7 3.5 0.00 0.59 0.59 91 1000.4
20260506100252 55 11 3.5 6.1 0.01 0.59 0.59 93 1000.3
20260506095248 54 310 3.5 6.1 0.02 0.59 0.59 97 1000.3
20260506094245 54 304 3.5 7.0 0.02 0.59 0.59 99 1000.2
20260506093242 53 323 2.6 5.2 0.02 0.59 0.59 99 1000.0
20260506092239 54 292 4.3 7.0 0.02 0.59 0.59 99 1000.0
20260506091236 54 294 1.7 3.5 0.04 0.59 0.59 99 999.8
20260506090232 54 315 2.6 5.2 0.02 0.58 0.58 99 999.8
20260506085229 53 316 1.7 3.5 0.01 0.57 0.57 99 999.8
20260506084226 53 317 1.7 3.5 0.02 0.57 0.57 99 999.9